Time_in_sec,Mx,My,Mz
1312467282.22307801,0.02546269,0.64007306,-0.53827935
1312467282.27221179,0.02360470,0.64071989,-0.53718144
1312467282.32321644,0.02867360,0.64142984,-0.53716284
1312467282.37153697,0.02666128,0.63993871,-0.53888136
1312467282.42334867,0.02352001,0.64213860,-0.53840709
1312467282.47260594,0.02692528,0.64032018,-0.53900343
1312467282.52310395,0.02660313,0.64109737,-0.53970015
1312467282.57153082,0.02439245,0.63931501,-0.53793210
1312467282.62322021,0.02543023,0.63916200,-0.53666091
1312467282.67162728,0.02568076,0.64110076,-0.53908122
1312467282.72422171,0.02654956,0.64139670,-0.54051906
1312467282.77182245,0.02530088,0.64075071,-0.53856903
1312467282.82423425,0.02777224,0.64148813,-0.53843176
1312467282.87248302,0.02423857,0.63999093,-0.53808677
1312467282.92311478,0.02632738,0.64087963,-0.53972107
1312467282.97212481,0.02660820,0.64045888,-0.53969508
1312467283.02433610,0.02540335,0.63829941,-0.53947955
1312467283.07120752,0.02566971,0.63954812,-0.53718781
1312467283.12311983,0.02559629,0.64160222,-0.53814864
1312467283.17151809,0.02695909,0.64222616,-0.53820908
1312467283.22425413,0.02794980,0.64080721,-0.53787225
1312467283.27226758,0.02642788,0.63878644,-0.53834838
1312467283.32424164,0.02555409,0.64061505,-0.54123616
1312467283.37224150,0.02471263,0.63981318,-0.53711063
1312467283.42310452,0.02676119,0.64160186,-0.53929144
1312467283.47214460,0.02570527,0.64109606,-0.53867638
1312467283.52021408,0.02686701,0.63943881,-0.54007584
1312467283.57222509,0.02569090,0.63982385,-0.53907102
1312467283.62421370,0.02634116,0.64046055,-0.53957605
1312467283.67111897,0.02554214,0.64123005,-0.53909016
1312467283.72021222,0.02562492,0.64210671,-0.53761297
1312467283.77111030,0.02533224,0.64020079,-0.53815341
1312467283.82021236,0.02438327,0.63944429,-0.53806806
1312467283.87187576,0.02601722,0.64057583,-0.53811663
1312467283.92015839,0.02577137,0.64085317,-0.53988081
1312467283.97212601,0.02606292,0.64084685,-0.53959501
1312467284.02415872,0.02621499,0.63916022,-0.53728783
1312467284.07305145,0.02678666,0.64044946,-0.53901243
1312467284.12412024,0.02394990,0.64190024,-0.54039735
1312467284.17212272,0.02733200,0.64108151,-0.53898567
1312467284.22416377,0.02594988,0.64186370,-0.53907138
1312467284.27307177,0.02583160,0.64045912,-0.53893322
1312467284.32012248,0.02775602,0.64069206,-0.53882378
1312467284.37215734,0.02497020,0.63983810,-0.53965056
1312467284.42020988,0.02625050,0.63968813,-0.53890324
1312467284.47109580,0.02652469,0.63981265,-0.53888828
1312467284.52312231,0.02639019,0.64045113,-0.53876644
1312467284.57110596,0.02493171,0.64071321,-0.53791147
1312467284.62021852,0.02582675,0.64018029,-0.53678012
1312467284.67221212,0.02549825,0.64162093,-0.53976792
1312467284.72422743,0.02549610,0.63983637,-0.54002357
1312467284.77222562,0.02513564,0.63955146,-0.53694975
1312467284.82352066,0.02397654,0.63868290,-0.53808588
1312467284.87261796,0.02586941,0.64083439,-0.53826159
1312467284.92421365,0.02537591,0.64072716,-0.53963381
1312467284.97126722,0.02682148,0.64222777,-0.53821701
1312467285.02423191,0.02508554,0.63866854,-0.53788722
1312467285.07222056,0.02499189,0.63929921,-0.53709066
1312467285.12422037,0.02656656,0.63967711,-0.53821260
1312467285.17222548,0.02685608,0.63992620,-0.53792882
1312467285.22413468,0.02656385,0.64118290,-0.53580385
1312467285.27245688,0.02585836,0.63928175,-0.53636813
1312467285.32423162,0.02483490,0.63968700,-0.53737152
1312467285.37209702,0.02604189,0.63863391,-0.53568041
1312467285.42310381,0.02582360,0.63852346,-0.53703672
1312467285.47216058,0.02680435,0.64144135,-0.53632975
1312467285.52309465,0.02508374,0.63800663,-0.53573108
1312467285.57116532,0.02686886,0.63961923,-0.53321981
1312467285.62315035,0.02491897,0.64053869,-0.53360832
1312467285.67121458,0.02691360,0.64103794,-0.53457248
1312467285.72326708,0.02570273,0.64066458,-0.53423625
1312467285.77223039,0.02431751,0.64080989,-0.53445184
1312467285.82342005,0.02521243,0.63823700,-0.53357404
1312467285.87221956,0.02554787,0.63783973,-0.53261054
1312467285.92320776,0.02609204,0.64053679,-0.53461617
1312467285.97214413,0.02531640,0.63938934,-0.53398007
1312467286.02360296,0.02524303,0.63746613,-0.53316313
1312467286.07236385,0.02622953,0.63849521,-0.53486180
1312467286.12353468,0.02601461,0.63912433,-0.53380328
1312467286.17221236,0.02559470,0.64002299,-0.53383434
1312467286.22385550,0.02398821,0.64146096,-0.53528249
1312467286.27218866,0.02633479,0.63962251,-0.53298181
1312467286.32413435,0.02599630,0.64040285,-0.53394842
1312467286.37121010,0.02568052,0.64051658,-0.53235406
1312467286.42421222,0.02558349,0.64040768,-0.53397232
1312467286.47215676,0.02575980,0.63861364,-0.53354526
1312467286.52033234,0.02466275,0.63801301,-0.53588986
1312467286.57210898,0.02444102,0.63963872,-0.53255355
1312467286.62317944,0.02693309,0.63769448,-0.53239495
1312467286.67213345,0.02652018,0.64065653,-0.53432339
1312467286.72021174,0.02494044,0.64091706,-0.53320658
1312467286.77220774,0.02559572,0.63989532,-0.53383327
1312467286.82337213,0.02424814,0.63735592,-0.53375763
1312467286.87220311,0.02377644,0.63874978,-0.53231633
1312467286.92019677,0.02490162,0.64066952,-0.53387922
1312467286.97218633,0.02589752,0.64065200,-0.53328371
1312467287.02018738,0.02503837,0.63885832,-0.53184086
1312467287.07218218,0.02656936,0.63870984,-0.53148240
1312467287.12018156,0.02506548,0.64030510,-0.53574938
1312467287.17211413,0.02513090,0.64131260,-0.53454310
1312467287.22009158,0.02491689,0.63977408,-0.53373712
1312467287.27280068,0.02589544,0.63988745,-0.53341258
1312467287.32010674,0.02516048,0.64066941,-0.53413320
1312467287.37221313,0.02647160,0.63883132,-0.53081667
1312467287.42016149,0.02501161,0.64003569,-0.53440595
1312467287.47211027,0.02460596,0.64016664,-0.53429586
1312467287.52313948,0.02598424,0.63897794,-0.53205603
1312467287.57209730,0.02683511,0.63873321,-0.53388739
1312467287.62421536,0.02395388,0.63886803,-0.53163469
1312467287.67109370,0.02664679,0.64012229,-0.53229523
1312467287.72422266,0.02575885,0.63976133,-0.53341949
1312467287.77213645,0.02531972,0.63910896,-0.53169203
1312467287.82308745,0.02455433,0.63872457,-0.53079218
1312467287.87266827,0.02680467,0.63756680,-0.53226691
1312467287.92318392,0.02439403,0.63939273,-0.53336114
1312467287.97221994,0.02778948,0.63997394,-0.53155583
1312467288.02311492,0.02449613,0.63886321,-0.53173780
1312467288.07263589,0.02626058,0.64088696,-0.53178549
1312467288.12319517,0.02554185,0.63962591,-0.53248984
1312467288.17213082,0.02581610,0.64077038,-0.53234810
1312467288.22320008,0.02523396,0.63963538,-0.53304553
1312467288.27222013,0.02456521,0.63721722,-0.53306597
1312467288.32341838,0.02578944,0.63899046,-0.53300858
1312467288.37114286,0.02593826,0.63860422,-0.53286260
1312467288.42333889,0.02578465,0.63973165,-0.53072870
1312467288.47130084,0.02648670,0.63987321,-0.53270602
1312467288.52423263,0.02511782,0.64001536,-0.53265172
1312467288.57170343,0.02509573,0.64190733,-0.53051591
1312467288.62311363,0.02481528,0.63948905,-0.53091729
1312467288.67222333,0.02594046,0.64140880,-0.53248018
1312467288.72339845,0.02540734,0.64026439,-0.53236794
1312467288.77200079,0.02604549,0.63845623,-0.53110737
1312467288.82422280,0.02515552,0.63835067,-0.53223366
1312467288.87250042,0.02515349,0.63860601,-0.53223568
1312467288.92328525,0.02519424,0.64155543,-0.53346562
1312467288.97222447,0.02548364,0.63976455,-0.53343540
1312467289.02040720,0.02508018,0.63770282,-0.53129196
1312467289.07120061,0.02590693,0.63960546,-0.53098959
1312467289.12403870,0.02667209,0.64090717,-0.53404760
1312467289.17221379,0.02547885,0.64050573,-0.53115553
1312467289.22416782,0.02732055,0.64088196,-0.53239650
1312467289.27125382,0.02388041,0.63990211,-0.53272235
1312467289.32311010,0.02460387,0.63940203,-0.53442472
1312467289.37218571,0.02518927,0.63923669,-0.53156608
1312467289.42025805,0.02574758,0.63912600,-0.53368425
1312467289.47159004,0.02577727,0.64052278,-0.53302079
1312467289.52425432,0.02672410,0.63949472,-0.53336173
1312467289.57211757,0.02487327,0.64026767,-0.53212988
1312467289.62308002,0.02447466,0.63848478,-0.53213954
1312467289.67110157,0.02537776,0.64090759,-0.53277785
1312467289.72425199,0.02456437,0.64040482,-0.53268659
1312467289.77121305,0.02403334,0.64002508,-0.53244555
1312467289.82025838,0.02490995,0.63873070,-0.53171289
1312467289.87221026,0.02532045,0.63887852,-0.53397602
1312467289.92309451,0.02516144,0.63952178,-0.53425896
1312467289.97220445,0.02709814,0.64026231,-0.53388369
1312467290.02309704,0.02527075,0.64013833,-0.53237486
1312467290.07213473,0.02597815,0.63974410,-0.53206211
1312467290.12342548,0.02670573,0.63975322,-0.53363365
1312467290.17174292,0.02566396,0.64143699,-0.53478211
1312467290.22020674,0.02503815,0.63977563,-0.53399909
1312467290.27210855,0.02556912,0.63913542,-0.53436697
1312467290.32012582,0.02585047,0.63938606,-0.53421813
1312467290.37107778,0.02560383,0.63887376,-0.53382516
1312467290.42008829,0.02483648,0.63976473,-0.53280056
1312467290.47310233,0.02592891,0.64067078,-0.53502995
1312467290.52506208,0.02472716,0.63914818,-0.53468460
1312467290.57291675,0.02506998,0.63795978,-0.53142893
1312467290.62014532,0.02524106,0.63874149,-0.53303838
1312467290.67208719,0.02598103,0.64129829,-0.53409046
1312467290.72341156,0.02686379,0.64025772,-0.53322494
1312467290.77222514,0.02741037,0.63984478,-0.53103894
1312467290.82309604,0.02549897,0.63988912,-0.53316659
1312467290.87248683,0.02668764,0.64011443,-0.53162056
1312467290.92308736,0.02570070,0.64091998,-0.53423828
1312467290.97222447,0.02607976,0.64002913,-0.53488195
1312467291.02713490,0.02589661,0.63782245,-0.53138012
1312467291.07221961,0.02619515,0.63987952,-0.53299183
1312467291.12315488,0.02382620,0.63850999,-0.53379065
1312467291.17211080,0.02552145,0.64013982,-0.53276378
1312467291.22308874,0.02516555,0.64003098,-0.53412807
1312467291.27109027,0.02603332,0.63998854,-0.53111959
1312467291.32411790,0.02379352,0.63851625,-0.53433043
1312467291.37111807,0.02627894,0.64062846,-0.53151357
1312467291.42320275,0.02616253,0.64090574,-0.53340477
1312467291.47183394,0.02526461,0.63988447,-0.53250778
1312467291.52423358,0.02785462,0.64087868,-0.53263450
1312467291.57128525,0.02516375,0.63936907,-0.53197193
1312467291.62369323,0.02526686,0.63871181,-0.53034759
1312467291.67108917,0.02526050,0.63937527,-0.53263867
1312467291.72327805,0.02521148,0.63938469,-0.53344828
1312467291.77215409,0.02454312,0.63910919,-0.53093016
1312467291.82308912,0.02523519,0.63859040,-0.53088629
1312467291.87255597,0.02456741,0.64002174,-0.53268355
1312467291.92319155,0.02770992,0.64177418,-0.53264958
1312467291.97109437,0.02504260,0.64140749,-0.53145641
1312467292.02411032,0.02524422,0.64039838,-0.53278172
1312467292.07130504,0.02536751,0.64014453,-0.53304160
1312467292.12315631,0.02520843,0.63976777,-0.53345132
1312467292.17209983,0.02600966,0.64180279,-0.53355479
1312467292.22345972,0.02632966,0.63924104,-0.53311372
1312467292.27169251,0.02637975,0.64012390,-0.53217626
1312467292.32310653,0.02535015,0.64027536,-0.53331250
1312467292.37211061,0.02488037,0.63937384,-0.53212279
1312467292.42025304,0.02566108,0.63988280,-0.53275377
1312467292.47220969,0.02435430,0.64131284,-0.53378123
1312467292.52419066,0.02353877,0.63902551,-0.53394562
1312467292.57218075,0.02606594,0.63896227,-0.53070664
1312467292.62378573,0.02567438,0.64026278,-0.53248698
1312467292.67175674,0.02620952,0.64115179,-0.53259718
1312467292.72310376,0.02631236,0.64039183,-0.53325778
1312467292.77221537,0.02587323,0.63973945,-0.53153032
1312467292.82014155,0.02444198,0.63849103,-0.53267932
1312467292.87302876,0.02634386,0.63745332,-0.53309941
1312467292.92013144,0.02412085,0.63914055,-0.53337502
1312467292.97212505,0.02685162,0.64179003,-0.53323716
1312467293.02055955,0.02453360,0.63811576,-0.53347790
1312467293.07180166,0.02451962,0.63898617,-0.53133398
1312467293.12010074,0.02725620,0.64076680,-0.53347498
1312467293.17210388,0.02507489,0.63925856,-0.53345525
1312467293.22012353,0.02487530,0.64001232,-0.53212786
1312467293.27122116,0.02701570,0.64050835,-0.53294909
1312467293.32407784,0.02576910,0.64052439,-0.53315574
1312467293.37121367,0.02604729,0.63911808,-0.53326356
1312467293.41998625,0.02614822,0.64065349,-0.53367263
1312467293.47134686,0.02544515,0.64063966,-0.53169632
1312467293.52107716,0.02707797,0.63985896,-0.53199947
1312467293.57152057,0.02571326,0.64153028,-0.53168750
1312467293.62009645,0.02452988,0.63974923,-0.53107023
1312467293.67122555,0.02638387,0.64063311,-0.53204536
1312467293.72390747,0.02552049,0.64128745,-0.53263801
1312467293.77228045,0.02561741,0.63935643,-0.53127337
1312467293.82311964,0.02664262,0.63859308,-0.53255290
1312467293.87193823,0.02449618,0.63988316,-0.53161097
1312467293.92408705,0.02617482,0.64141339,-0.53313899
1312467293.97212982,0.02644591,0.64090097,-0.53325391
1312467294.02204323,0.02361134,0.64015913,-0.53260535
1312467294.07109857,0.02405379,0.64053112,-0.53204477
1312467294.12318563,0.02590372,0.64192581,-0.53302401
1312467294.17230821,0.02688221,0.64101917,-0.53282619
1312467294.22325659,0.02453061,0.63951880,-0.53335416
1312467294.27120042,0.02701998,0.63908029,-0.53078687
1312467294.32324553,0.02541213,0.63952321,-0.53464782
1312467294.37222266,0.02460719,0.63912165,-0.53213668
1312467294.42312098,0.02412090,0.64016050,-0.53324825
1312467294.47109103,0.02660188,0.64064085,-0.53297400
1312467294.52191520,0.02346833,0.63967651,-0.53503019
1312467294.57268500,0.02494055,0.63795984,-0.53130198
1312467294.62330890,0.02442558,0.63747418,-0.53307599
1312467294.67222857,0.02676608,0.64139915,-0.53243244
1312467294.72357893,0.02489981,0.64000762,-0.53172308
1312467294.77119708,0.02574865,0.64001828,-0.53355646
1312467294.82308316,0.02397028,0.63988489,-0.53123802
1312467294.87257385,0.02583153,0.63793766,-0.53017467
1312467294.92311168,0.02641317,0.63988727,-0.53392047
1312467294.97185969,0.02631743,0.63975334,-0.53325272
1312467295.02341747,0.02410574,0.63809872,-0.53148568
1312467295.07205582,0.02565607,0.64154124,-0.53263205
1312467295.12308455,0.02543670,0.64053851,-0.53411621
1312467295.17118883,0.02731627,0.64231002,-0.53455877
1312467295.22413087,0.02639993,0.64052731,-0.53406048
1312467295.27233338,0.02318422,0.63991165,-0.53289711
1312467295.32312727,0.02577417,0.63988590,-0.53315061
1312467295.37120199,0.02721044,0.63947582,-0.53212339
1312467295.42308831,0.02546420,0.63913077,-0.53383517
1312467295.47119784,0.02620535,0.63962257,-0.53285486
1312467295.52336407,0.02412880,0.64005625,-0.53539824
1312467295.57121038,0.02506672,0.63926017,-0.53359020
1312467295.62310123,0.02418621,0.63912803,-0.53229553
1312467295.67111421,0.02587504,0.64040130,-0.53368652
1312467295.72309136,0.02512476,0.64105874,-0.53467596
1312467295.77122664,0.02525233,0.63937682,-0.53277361
1312467295.82312489,0.02488544,0.63873535,-0.53211766
1312467295.87122560,0.02535697,0.63927877,-0.53559035
1312467295.92021847,0.02466794,0.63941449,-0.53563118
1312467295.97121954,0.02483828,0.64042664,-0.53495669
1312467296.02020288,0.02471803,0.64029741,-0.53469378
1312467296.07213998,0.02587701,0.63912594,-0.53381127
1312467296.12312651,0.02568126,0.64028621,-0.53463805
1312467296.17108607,0.02474739,0.64057153,-0.53644204
1312467296.22309446,0.02513896,0.63927108,-0.53466171
1312467296.27211261,0.02647414,0.63926286,-0.53525680
1312467296.32011914,0.02532739,0.63992196,-0.53600031
1312467296.37212300,0.02420836,0.63825607,-0.53430450
1312467296.42310667,0.02546606,0.64081264,-0.53586453
1312467296.47280025,0.02583599,0.64107102,-0.53651738
1312467296.52012157,0.02605524,0.64003378,-0.53528678
1312467296.57221007,0.02641114,0.64014268,-0.53392249
1312467296.62021446,0.02502271,0.63761109,-0.53452152
1312467296.67221618,0.02632735,0.63939369,-0.53540069
1312467296.72010159,0.02617651,0.64003533,-0.53554869
1312467296.77112389,0.02526839,0.63927102,-0.53478873
1312467296.82086563,0.02593617,0.63783962,-0.53299147
1312467296.87289214,0.02511236,0.63851118,-0.53519535
1312467296.92370725,0.02525284,0.64006370,-0.53721577
1312467296.97222042,0.02527870,0.64105403,-0.53439814
1312467297.02410579,0.02621037,0.63796413,-0.53297651
1312467297.07184172,0.02635496,0.64002591,-0.53486603
1312467297.12310481,0.02603997,0.64092922,-0.53542888
1312467297.17222142,0.02660763,0.63875204,-0.53537971
1312467297.22407341,0.02754848,0.64053005,-0.53547317
1312467297.27272844,0.02647008,0.63977361,-0.53526086
1312467297.32344151,0.02523543,0.63917458,-0.53761345
1312467297.37210155,0.02470265,0.63915288,-0.53508943
1312467297.42335272,0.02575034,0.63864022,-0.53596622
1312467297.47222304,0.02641188,0.63991225,-0.53620648
1312467297.52310514,0.02710908,0.63977498,-0.53603071
1312467297.56410789,0.02368325,0.63904732,-0.53608871
1312467297.62310982,0.02626942,0.63963503,-0.53406131
1312467297.67116094,0.02626723,0.64182770,-0.53609473
1312467297.72308183,0.02755976,0.64116544,-0.53520834
1312467297.77208209,0.02563544,0.63797522,-0.53341317
1312467297.82413149,0.02542746,0.63964778,-0.53437895
1312467297.87215424,0.02498806,0.63889271,-0.53493649
1312467297.92309785,0.02489508,0.63827300,-0.53655070
1312467297.97154760,0.02655562,0.64016449,-0.53606558
1312467298.02310753,0.02498299,0.63953120,-0.53494161
1312467298.07228303,0.02637435,0.63963968,-0.53459311
1312467298.12312675,0.02705397,0.64055055,-0.53684646
1312467298.17123675,0.02726809,0.63913178,-0.53574777
1312467298.22324109,0.02617848,0.63875997,-0.53567344
1312467298.27213097,0.02589409,0.63889241,-0.53582537
1312467298.32310224,0.02581058,0.63824618,-0.53501856
1312467298.37225318,0.02668939,0.63975638,-0.53390348
1312467298.42310548,0.02521024,0.64042962,-0.53560752
1312467298.47234964,0.02608584,0.63926297,-0.53487587
1312467298.52326965,0.02658013,0.64015979,-0.53566080
1312467298.57129502,0.02551599,0.63863558,-0.53530747
1312467298.62366152,0.02481056,0.63775444,-0.53574497
1312467298.67119622,0.02699294,0.64015496,-0.53563690
1312467298.72316241,0.02710097,0.64079654,-0.53603882
1312467298.77163410,0.02586140,0.63889867,-0.53636509
1312467298.82021856,0.02656598,0.63797027,-0.53389722
1312467298.87110305,0.02618056,0.63952458,-0.53554463
1312467298.92022395,0.02548714,0.63904834,-0.53800130
1312467298.97181225,0.02547823,0.63928032,-0.53585231
1312467299.02309203,0.02576183,0.63835829,-0.53354323
1312467299.07109976,0.02534705,0.63963842,-0.53344238
1312467299.12015176,0.02479934,0.63813913,-0.53588295
1312467299.17178464,0.02589510,0.63876474,-0.53582436
1312467299.22373033,0.02677493,0.64014721,-0.53470826
1312467299.27211881,0.02617160,0.63873655,-0.53352243
1312467299.32011533,0.02731002,0.64001626,-0.53494525
1312467299.37223911,0.02681679,0.64001173,-0.53403252
1312467299.42014551,0.02634572,0.63913518,-0.53512877
1312467299.47144794,0.02709077,0.64105350,-0.53617579
1312467299.52420926,0.02543243,0.64196658,-0.53627849
1312467299.57235217,0.02456290,0.63736987,-0.53535300
1312467299.62021995,0.02606555,0.63681960,-0.53324521
1312467299.67108655,0.02566796,0.63990623,-0.53490484
1312467299.72021770,0.02580455,0.64003235,-0.53489792
1312467299.77110600,0.02466607,0.63773263,-0.53360182
1312467299.82331228,0.02463959,0.63901269,-0.53388190
1312467299.87276101,0.02576189,0.63937825,-0.53341645
1312467299.92421556,0.02572002,0.63951379,-0.53409213
1312467299.97220254,0.02721124,0.64026541,-0.53428054
1312467300.02354646,0.02498907,0.63876504,-0.53493547
1312467300.07126904,0.02640590,0.63772118,-0.53430796
1312467300.12421393,0.02728636,0.64183050,-0.53738046
1312467300.17210627,0.02527966,0.63990635,-0.53452390
1312467300.22421074,0.02624288,0.63989514,-0.53446817
1312467300.27208447,0.02581165,0.63913846,-0.53489077
1312467300.32356644,0.02715822,0.64180553,-0.53496748
1312467300.37214756,0.02473426,0.63825434,-0.53467745
1312467300.42321372,0.02552326,0.64080167,-0.53491992
1312467300.47114372,0.02536109,0.63978803,-0.53545952
1312467300.52354240,0.02624609,0.63757479,-0.53243375
1312467300.57216930,0.02706642,0.63912094,-0.53454924
1312467300.62320852,0.02533685,0.63989538,-0.53357935
1312467300.67222142,0.02573332,0.63989371,-0.53382534
1312467300.72321248,0.02674529,0.63977039,-0.53524494
1312467300.77120066,0.02504558,0.64000446,-0.53158015
1312467300.82330322,0.02492116,0.63834602,-0.53157490
1312467300.87909007,0.02797374,0.63909566,-0.53315204
1312467300.92306018,0.02527662,0.64028943,-0.53452694
1312467300.97208619,0.02592068,0.63965231,-0.53529167
